DW5249 Folkston GA US current weather conditions

sailwx.info

Wind from 051 at 0 knots gusting 5

Air temperature 12.2° C
Dewpoint 10.8° C

Last reported at 2019-Dec-12 23:02 UTC.
Time now 2019-Dec-12 23:33 UTC

Location: N 30°51' W 081°59'.
View on Google Maps.

See reports from other nearby stations

  
Tides and Currents Weather Stations Pressure Air Temp Water Temp Dewpoint Dewpoint Depression Visibility Wind Speed Wind Dir Waves Ship Positions
date/time (UTC)wind fromknots sea level pressurealtimeterstation pressurevisibilityair tempwater tempwave heightnotes
2019-Dec-12 23:02 051 0 gusting 5 12.2
2019-Dec-12 22:47 051 1 gusting 5 12.2
2019-Dec-12 22:32 055 1 gusting 4 12.2
2019-Dec-12 22:16 047 1 gusting 5 12.2
2019-Dec-12 22:02 112 2 gusting 8 12.8
2019-Dec-12 21:46 046 1 gusting 4 12.8
2019-Dec-12 21:31 048 1 gusting 5 12.8
2019-Dec-12 21:16 067 1 gusting 5 12.8
2019-Dec-12 21:01 058 1 gusting 7 13.3
2019-Dec-12 20:48 069 1 gusting 5 13.3
2019-Dec-12 20:31 058 1 gusting 5 13.3
2019-Dec-12 20:17 053 1 gusting 6 13.9
2019-Dec-12 20:01 053 2 gusting 7 13.9
2019-Dec-12 19:48 044 1 gusting 8 13.9
2019-Dec-12 19:32 057 3 gusting 7 13.9
2019-Dec-12 19:16 061 2 gusting 6 13.9
2019-Dec-12 19:01 061 2 gusting 5 13.9
2019-Dec-12 18:46 063 2 gusting 8 14.4
2019-Dec-12 18:32 064 0 gusting 8 14.4
2019-Dec-12 18:16 074 3 gusting 8 14.4
2019-Dec-12 18:00 055 3 gusting 9 14.4
2019-Dec-12 17:46 063 2 gusting 7 14.4
2019-Dec-12 17:31 043 3 gusting 7 14.4
2019-Dec-12 17:15 058 2 gusting 7 13.9
2019-Dec-12 17:00 049 3 gusting 9 13.9
2019-Dec-12 16:45 073 1 gusting 5 13.3
2019-Dec-12 16:30 073 1 gusting 5 12.8
2019-Dec-12 16:15 051 1 gusting 5 12.2
2019-Dec-12 16:00 060 2 gusting 7 11.7
2019-Dec-12 15:45 057 1 gusting 4 11.1
2019-Dec-12 15:30 057 0 gusting 4 10.0
2019-Dec-12 15:17 057 0 gusting 3 9.4
2019-Dec-12 15:02 057 9.4
2019-Dec-12 14:48 057 0 gusting 2 8.9
2019-Dec-12 14:32 060 0 gusting 4 8.3
2019-Dec-12 14:17 038 8.3
2019-Dec-12 14:02 005 7.8
2019-Dec-12 13:47 360 1 gusting 5 7.8
2019-Dec-12 13:31 028 0 gusting 3 8.3
2019-Dec-12 13:16 026 0 gusting 4 8.3
2019-Dec-12 13:01 028 8.3
2019-Dec-12 12:45 046 8.3
2019-Dec-12 12:31 046 7.8
2019-Dec-12 12:16 046 8.3
2019-Dec-12 12:02 048 8.9
2019-Dec-12 11:46 046 1 gusting 4 9.4
2019-Dec-12 11:31 024 0 gusting 5 8.9
2019-Dec-12 11:17 042 8.9
2019-Dec-12 11:01 051 0 gusting 4 8.9
2019-Dec-12 10:46 063 1 gusting 4 8.9
2019-Dec-12 10:31 046 1 gusting 4 8.9
2019-Dec-12 10:16 054 0 gusting 3 8.9
2019-Dec-12 10:00 056 1 gusting 4 8.9
2019-Dec-12 09:45 054 0 gusting 4 8.9
2019-Dec-12 09:30 055 1 gusting 3 8.9
2019-Dec-12 09:15 054 0 gusting 4 8.9
2019-Dec-12 09:02 043 1 gusting 3 8.9
2019-Dec-12 08:45 016 8.9
2019-Dec-12 08:31 026 0 gusting 4 9.4
2019-Dec-12 08:15 055 9.4
2019-Dec-12 08:00 055 0 gusting 4 9.4
2019-Dec-12 07:45 056 0 gusting 5 9.4
2019-Dec-12 07:30 056 1 gusting 4 9.4
2019-Dec-12 07:00 056 1 gusting 5 10.0
2019-Dec-12 06:45 060 0 gusting 4 10.0
2019-Dec-12 06:30 062 2 gusting 4 10.0
2019-Dec-12 06:15 058 1 gusting 4 10.6
2019-Dec-12 06:00 057 1 gusting 6 10.6
2019-Dec-12 05:45 059 1 gusting 5 10.6
2019-Dec-12 05:18 057 2 gusting 6 11.1
2019-Dec-12 05:02 063 1 gusting 4 11.1
2019-Dec-12 04:47 059 0 gusting 6 11.1
2019-Dec-12 04:32 058 1 gusting 5 11.1
2019-Dec-12 04:18 044 0 gusting 5 11.7
2019-Dec-12 04:02 057 1 gusting 4 11.7
2019-Dec-12 03:46 056 0 gusting 5 11.7
2019-Dec-12 03:34 057 1 gusting 4 11.7
2019-Dec-12 03:17 066 2 gusting 4 11.7
2019-Dec-12 03:02 048 0 gusting 5 11.7
2019-Dec-12 02:46 028 12.2
2019-Dec-12 02:32 052 1 gusting 4 12.2
2019-Dec-12 02:18 047 1 gusting 4 12.2
2019-Dec-12 02:01 037 0 gusting 3 11.7
2019-Dec-12 01:46 037 11.7
2019-Dec-12 01:31 036 0 gusting 3 12.2
2019-Dec-12 01:17 019 0 gusting 3 12.2
2019-Dec-12 01:02 011 2 gusting 5 12.2
2019-Dec-12 00:46 021 12.2
2019-Dec-12 00:31 021 12.8
2019-Dec-12 00:15 011 12.8
2019-Dec-12 00:01 022 1 gusting 4 13.3
2019-Dec-11 23:46 046 13.3
2019-Dec-11 23:32 046 13.3
2019-Dec-11 23:15 046 13.3
2019-Dec-11 23:01 046 13.3
2019-Dec-11 22:46 046 13.3
2019-Dec-11 22:31 046 13.9
2019-Dec-11 22:16 046 13.9
2019-Dec-11 22:00 046 13.9
2019-Dec-11 21:45 046 13.9
2019-Dec-11 21:31 046 13.9
2019-Dec-11 21:15 046 13.9
2019-Dec-11 21:03 046 13.9
2019-Dec-11 20:45 046 13.9
2019-Dec-11 20:30 034 0 gusting 4 13.9
2019-Dec-11 20:15 047 0 gusting 3 13.9
2019-Dec-11 20:01 051 1 gusting 4 13.9
2019-Dec-11 19:45 068 13.9
2019-Dec-11 19:30 068 13.9
2019-Dec-11 19:15 049 13.9
2019-Dec-11 19:00 036 1 gusting 4 13.3
2019-Dec-11 18:45 055 13.3
2019-Dec-11 18:30 034 0 gusting 3 13.3
2019-Dec-11 18:15 035 0 gusting 4 13.3
2019-Dec-11 18:00 010 0 gusting 5 13.3
2019-Dec-11 17:45 360 2 gusting 5 13.3
2019-Dec-11 17:30 009 2 gusting 4 13.3
2019-Dec-11 17:15 005 2 gusting 6 12.8
2019-Dec-11 17:00 037 0 gusting 4 12.2
2019-Dec-11 16:45 024 0 gusting 3 11.7
2019-Dec-11 16:30 360 1 gusting 5 11.1
2019-Dec-11 16:15 355 2 gusting 6 11.1
2019-Dec-11 16:00 047 0 gusting 3 11.1
2019-Dec-11 15:45 005 11.1
2019-Dec-11 15:30 005 2 gusting 6 11.1
2019-Dec-11 15:17 355 1 gusting 6 11.1
2019-Dec-11 15:01 350 1 gusting 5 11.1
2019-Dec-11 14:47 360 1 gusting 4 11.1
2019-Dec-11 14:32 355 1 gusting 5 11.1
2019-Dec-11 14:19 355 1 gusting 4 11.7
2019-Dec-11 14:02 350 1 gusting 5 11.1
2019-Dec-11 13:46 336 1 gusting 3 11.7
2019-Dec-11 13:32 333 0 gusting 3 11.7
2019-Dec-11 13:17 332 0 gusting 2 11.7
2019-Dec-11 13:01 332 11.7
2019-Dec-11 12:46 321 1 gusting 3 11.7
2019-Dec-11 12:31 318 12.2
2019-Dec-11 12:16 318 12.2
2019-Dec-11 12:01 317 12.2
2019-Dec-11 11:46 315 1 gusting 3 12.2
2019-Dec-11 11:31 300 12.2
2019-Dec-11 11:15 300 12.2
2019-Dec-11 11:02 298 0 gusting 3 12.2
2019-Dec-11 10:46 284 12.8
2019-Dec-11 10:31 246 2 gusting 4 12.8
2019-Dec-11 10:15 261 0 gusting 6 13.9
2019-Dec-11 10:00 348 14.4
2019-Dec-11 09:45 355 1 gusting 4 14.4
2019-Dec-11 09:30 360 2 gusting 6 15.0
2019-Dec-11 09:15 355 2 gusting 6 15.6
2019-Dec-11 09:03 344 1 gusting 5 15.6
2019-Dec-11 08:48 360 2 gusting 5 16.1
2019-Dec-11 08:31 360 3 gusting 6 17.2
2019-Dec-11 08:17 010 3 gusting 5 18.3
2019-Dec-11 08:04 252 1 gusting 7 20.0
2019-Dec-11 07:46 254 1 gusting 4 20.0
2019-Dec-11 07:33 255 0 gusting 3 20.0
2019-Dec-11 07:17 254 20.0
2019-Dec-11 07:01 254 20.0
2019-Dec-11 06:48 254 20.0
2019-Dec-11 06:32 254 20.0
2019-Dec-11 06:16 254 2 gusting 4 20.6
2019-Dec-11 06:01 265 1 gusting 6 20.6
2019-Dec-11 05:46 284 2 gusting 7 20.6
2019-Dec-11 05:32 236 3 gusting 6 20.6
2019-Dec-11 05:17 271 2 gusting 7 20.6
2019-Dec-11 05:00 246 3 gusting 6 20.6
2019-Dec-11 04:46 245 0 gusting 4 20.6
2019-Dec-11 04:31 244 1 gusting 8 20.6
2019-Dec-11 04:16 238 3 gusting 6 20.6
2019-Dec-11 04:01 237 19.4
2019-Dec-11 03:46 237 17.8
2019-Dec-11 03:31 237 17.8
2019-Dec-11 03:15 237 18.3
2019-Dec-11 03:01 237 18.3
2019-Dec-11 02:46 237 18.9
2019-Dec-11 02:30 237 19.4
2019-Dec-11 02:16 237 20.6
2019-Dec-11 02:00 237 20.6
2019-Dec-11 01:45 237 21.1
2019-Dec-11 01:30 237 21.1
2019-Dec-11 01:15 237 21.7
2019-Dec-11 01:00 237 21.1
2019-Dec-11 00:45 237 21.1
2019-Dec-11 00:30 237 0 gusting 2 21.7
2019-Dec-11 00:15 237 0 gusting 3 21.7
2019-Dec-11 00:00 231 2 gusting 8 22.2
2019-Dec-10 23:45 242 1 gusting 3 22.2
2019-Dec-10 23:30 238 2 gusting 11 22.8
2019-Dec-10 23:15 244 23.3
2019-Dec-10 23:00 244 23.3